Regional Weather Roundup
Issued by NWS Jackson, KY

Home | Current Version | Previous Version | Graphics & Text | Print | Product List | Glossary On
Versions: 1 2 3 4 5 6 7 8 9 10 11 12 13 14 15 16 17 18 19 20 21 22 23 24 25 26 27 28
000
ASUS43 KJKL 190410
RWRJKL

EAST KENTUCKY HOURLY WEATHER ROUNDUP
NATIONAL WEATHER SERVICE JACKSON KY
1200 AM EDT THU APR 19 2018

NOTE: "FAIR" INDICATES FEW OR NO CLOUDS BELOW 12,000 FEET WITH
NO SIGNIFICANT WEATHER AND/OR OBSTRUCTIONS TO VISIBILITY.

* THESE REPORTS ARE NOT UNDER NWS QUALITY CONTROL AND MAY NOT
  REPORT WEATHER SUCH AS PRECIPITATION AND FOG.

KYZ079-080-083-085-087-088-110-112-115-119-120-190500
...EASTERN KENTUCKY...

CITY           SKY/WX    TMP DP  RH WIND       PRES   REMARKS
JACKSON        LGT RAIN  59  53  80 NW8G23    29.79R
LONDON         MOCLDY    66  54  65 SW12G23   29.79F
SOMERSET*      CLOUDY    63  52  67 N15G26    29.83R
MONTICELLO*    MOCLDY    64  56  75 SW21      29.82S
WILLIAMSBURG*  MOCLDY    64  54  68 SW6G18    29.80F
MIDDLESBORO*     N/A     67  52  59 W5        29.81F
HARLAN APT*    MOCLDY    65  51  60 W7        29.80F
PIKE CO APT*   MOCLDY    67  50  54 SW10G18   29.74R
BIG SANDY APT* RAIN      68  53  57 NW18G30   29.75R
MOREHEAD APT*  CLOUDY    55  52  88 NW6G20    29.81R
ASHLAND*       LGT RAIN  57  54  89 NW9G18    29.75R
$$

KYZ035-036-041-042-044-050-067-078-099-190500
...CENTRAL KENTUCKY...

CITY           SKY/WX    TMP DP  RH WIND       PRES   REMARKS
MT STERLING*   CLOUDY    55  52  88 NW10G16   29.83R
FLEMING/MASON* CLOUDY    54  45  72 NW17      29.82R
DANVILLE*      CLOUDY    54  45  71 N13G20    29.86R
LEXINGTON      CLOUDY    53  41  63 NW18G36   29.85R
FRANKFORT      CLOUDY    52  36  54 NW16G28   29.85R
LOUISVILLE     MOCLDY    50  35  56 NW18G28   29.90R
GLASGOW*       CLOUDY    56  42  60 NW13G22   29.91R
BOWLING GREEN    N/A     55  41  59 NW13G33   29.94R
$$

KYZ091>093-OHZ055-061-077-WVZ005-015-034-035-042-190500
...SOUTHERN OHIO/WEST VIRGINIA...

CITY           SKY/WX    TMP DP  RH WIND       PRES   REMARKS
COVINGTON        N/A     46  35  65 NW17G28   29.84R
COLUMBUS       CLOUDY    46  43  89 N3        29.75R
DAYTON         MOCLDY    44  40  85 W20       29.80R
WILMINGTON       N/A     49  42  77 W17G26    29.77R
HUNTINGTON     RAIN      59  55  87 NW20G35   29.73R FOG
CHARLESTON     MOCLDY    62  44  51 SW5       29.63F
PINEVILLE*       N/A     68  47  46 MISG        N/A
BECKLEY          N/A     66  45  46 W21G38    29.70S
BLUEFIELD        N/A     63  50  62 W21G32    29.74F
LOGAN CO APT*    N/A     68  50  52 SW13G20   29.70R
$$

VAZ002-007-008-TNZ017-027-036-066-071-190500
...SOUTHWEST VIRGINIA/EAST TENNESSEE...

CITY           SKY/WX    TMP DP  RH WIND       PRES   REMARKS
WISE*            N/A     63  50  63 SW16G24   29.83R
JONESVILLE*      N/A     64  54  68 SW5       29.83F
ABINGDON*      MOCLDY    69  54  59 W16G23    29.81R
BRISTOL          N/A     69  56  62 SW13G28   29.80F
SEVIERVILLE*   PTCLDY    70  55  60 W12       29.83F
KNOXVILLE      MOCLDY    67  57  70 SW20G26   29.83F
LAFOLLETTE*    MOCLDY    68  54  60 SW10G21   29.85F
OAK RIDGE        N/A     68  58  70 SW6       29.84F
CROSSVILLE     CLOUDY    63  52  67 SW12G17   29.87F
NASHVILLE      CLOUDY    64  55  72 W12       29.89R
$$

...KEY TO REMARKS...
VSB - VISIBILITY IN MILES
WCI - WIND CHILL INDEX
HX  - HEAT INDEX

$$




USA.gov is the U.S. government's official web portal to all federal, state and local government web resources and services.